Zurück zum Katalog

SL-14 R/B

AktivPO
NORAD 15332·ROCKET BODY·🇷🇺 Russia

Gestartet Sep 28, 1984 von Plesetsk Cosmodrome

Loading…

Nächste Überflüge (nächste 24 Stunden)

TLE

AktuellSource: Space-Track

Epoche: Sep 14, 2026, 07:44 UTC

1 15332U 84105B   26257.32252410  .00000295  00000-0  30870-4 0  9991
2 15332  82.5299 268.5056 0020706  28.6039 342.0446 14.85974749246234

Verfolge SL-14 R/B in Echtzeit mit AllMySat

Download on the App Store